Tracking 28799 objects as of 17-Apr-2024
HD Live streaming from Space Station
objects crossing your sky now

STARLINK-3939

Track STARLINK-3939 now!
10-day predictions
STARLINK-3939 is classified as:


NORAD ID: 52545
Int'l Code: 2022-051N
Perigee: 366.2 km
Apogee: 367.5 km
Inclination: 53.2 °
Period: 91.7 minutes
Semi major axis: 6737 km
RCS: Unknown
Launch date: May 13, 2022
Source: United States (US)
Launch site: AIR FORCE WESTERN TEST RANGE (AFWTR)
Your satellite tracking list
Your tracking list is empty




NASA's NSSDC Master Catalog

Two Line Element Set (TLE):
1 52545U 22051N   24107.90601928  .00001897  00000-0  20509-4 0  9995
2 52545  53.2167 340.7765 0000970  92.8589 267.2540 15.69715178107202
Source of the keplerian elements: AFSPC